AAL2042 KAUS-KPHX

Flight info

Callsign AAL2042
Flight time N/A
Altitude 38000
Route MUCKY3 MUCKY JCT ELP DRRVR PINNG1
Aircraft B38M/M-SDE1FGHILORVWXY/HB1

Departure

Time 2026-04-30 21:53
Airport Austin Bergstrom International Airport (KAUS)

Arrival

Time N/A
Airport Phoenix Sky Harbor International Airport (KPHX)
Time Latitude Longitude Altitude Speed Heading
2026-04-30 21:19 30.20173 -97.66451 498 ft 0 kts 340°
2026-04-30 21:39 30.20162 -97.66447 498 ft 2 kts 340°
2026-04-30 21:40 30.20149 -97.66441 498 ft 2 kts 340°
2026-04-30 21:40 30.20134 -97.66435 497 ft 2 kts 340°
2026-04-30 21:40 30.20120 -97.66435 497 ft 2 kts 31°
2026-04-30 21:40 30.20111 -97.66448 497 ft 1 kts 79°
2026-04-30 21:41 30.20111 -97.66456 497 ft 1 kts 94°
2026-04-30 21:41 30.20111 -97.66460 497 ft 0 kts 90°
2026-04-30 21:44 30.20111 -97.66455 497 ft 3 kts 90°
2026-04-30 21:44 30.20099 -97.66402 497 ft 9 kts 149°
2026-04-30 21:45 30.20009 -97.66386 496 ft 15 kts 178°
2026-04-30 21:45 30.19925 -97.66369 494 ft 11 kts 131°
2026-04-30 21:45 30.19918 -97.66255 493 ft 18 kts 88°
2026-04-30 21:46 30.19809 -97.65983 488 ft 16 kts 182°
2026-04-30 21:46 30.19716 -97.65982 488 ft 17 kts 179°
2026-04-30 21:46 30.19565 -97.65975 486 ft 26 kts 176°
2026-04-30 21:47 30.19363 -97.65969 484 ft 29 kts 178°
2026-04-30 21:47 30.19134 -97.65962 481 ft 36 kts 178°
2026-04-30 21:47 30.18882 -97.65955 482 ft 36 kts 179°
2026-04-30 21:47 30.18627 -97.65949 482 ft 36 kts 178°
2026-04-30 21:48 30.18366 -97.65942 485 ft 38 kts 179°
2026-04-30 21:48 30.18111 -97.65936 483 ft 34 kts 178°
2026-04-30 21:48 30.17993 -97.65894 479 ft 14 kts 100°
2026-04-30 21:48 30.17993 -97.65821 478 ft 0 kts 89°
2026-04-30 21:51 30.17995 -97.65777 476 ft 11 kts 81°
2026-04-30 21:52 30.18074 -97.65726 476 ft 17 kts 356°
2026-04-30 21:52 30.18461 -97.65738 482 ft 97 kts 359°
2026-04-30 21:52 30.19398 -97.65766 511 ft 164 kts
2026-04-30 21:52 30.20508 -97.65802 1097 ft 167 kts
2026-04-30 21:53 30.21742 -97.65857 1571 ft 192 kts 351°
2026-04-30 21:53 30.22941 -97.66688 2044 ft 219 kts 311°
2026-04-30 21:53 30.23519 -97.68411 2301 ft 248 kts 273°
2026-04-30 21:53 30.23209 -97.70465 2720 ft 271 kts 250°
2026-04-30 21:54 30.22551 -97.72539 3583 ft 277 kts 247°
2026-04-30 21:54 30.21869 -97.74568 4557 ft 277 kts 247°
2026-04-30 21:54 30.21213 -97.76690 5426 ft 283 kts 252°
2026-04-30 21:54 30.20899 -97.78911 6316 ft 286 kts 267°
2026-04-30 21:55 30.21050 -97.81200 7171 ft 291 kts 277°
2026-04-30 21:55 30.21472 -97.83493 8078 ft 291 kts 282°
2026-04-30 21:55 30.21960 -97.85778 8943 ft 292 kts 282°
2026-04-30 21:55 30.22438 -97.88032 9762 ft 294 kts 282°
2026-04-30 21:56 30.22924 -97.90373 10372 ft 304 kts 282°
2026-04-30 21:56 30.23402 -97.92698 10461 ft 329 kts 282°
2026-04-30 21:56 30.23938 -97.95279 10747 ft 347 kts 282°
2026-04-30 21:56 30.24503 -97.97953 11515 ft 348 kts 282°
2026-04-30 21:57 30.25079 -98.00665 12252 ft 350 kts 282°
2026-04-30 21:57 30.25651 -98.03320 12978 ft 352 kts 282°
2026-04-30 21:57 30.26252 -98.06035 13677 ft 354 kts 282°
2026-04-30 21:57 30.26882 -98.08793 14384 ft 356 kts 282°
2026-04-30 21:58 30.27525 -98.11546 15070 ft 358 kts 282°
2026-04-30 21:58 30.28174 -98.14291 15736 ft 359 kts 282°
2026-04-30 21:58 30.28838 -98.17091 16398 ft 361 kts 282°
2026-04-30 21:58 30.29501 -98.19910 17045 ft 362 kts 282°
2026-04-30 21:59 30.30137 -98.22721 17675 ft 363 kts 281°
2026-04-30 21:59 30.30742 -98.25581 18299 ft 364 kts 280°
2026-04-30 21:59 30.31318 -98.28440 18905 ft 364 kts 279°
2026-04-30 22:00 30.32520 -98.34197 20087 ft 366 kts 279°
2026-04-30 22:00 30.33571 -98.39938 21196 ft 367 kts 277°
2026-04-30 22:00 30.34020 -98.42861 21727 ft 367 kts 276°
2026-04-30 22:01 30.34428 -98.45737 22239 ft 368 kts 276°
2026-04-30 22:01 30.34864 -98.48672 22747 ft 369 kts 277°
2026-04-30 22:01 30.35342 -98.51611 23237 ft 370 kts 278°
2026-04-30 22:01 30.35851 -98.54530 23717 ft 371 kts 278°
2026-04-30 22:02 30.36382 -98.57455 24182 ft 372 kts 279°
2026-04-30 22:02 30.36926 -98.60378 24637 ft 373 kts 279°
2026-04-30 22:02 30.37481 -98.63322 25067 ft 374 kts 279°
2026-04-30 22:02 30.38028 -98.66206 25504 ft 375 kts 279°
2026-04-30 22:03 30.38597 -98.69200 25965 ft 375 kts 279°
2026-04-30 22:03 30.39163 -98.72171 26364 ft 376 kts 279°
2026-04-30 22:03 30.39733 -98.75161 26802 ft 377 kts 279°
2026-04-30 22:03 30.40299 -98.78122 27210 ft 377 kts 280°
2026-04-30 22:04 30.40861 -98.81066 27591 ft 378 kts 280°
2026-04-30 22:04 30.41429 -98.84036 27975 ft 379 kts 280°
2026-04-30 22:04 30.42562 -98.89990 28697 ft 381 kts 281°
2026-04-30 22:05 30.43138 -98.93043 28985 ft 383 kts 281°
2026-04-30 22:05 30.43711 -98.96062 29307 ft 384 kts 281°
2026-04-30 22:05 30.44286 -98.99087 29608 ft 386 kts 281°
2026-04-30 22:05 30.44862 -99.02106 29970 ft 386 kts 281°
2026-04-30 22:06 30.45440 -99.05133 30373 ft 384 kts 281°
2026-04-30 22:06 30.46589 -99.11153 31153 ft 381 kts 282°
2026-04-30 22:06 30.47167 -99.14180 31549 ft 380 kts 282°
2026-04-30 22:07 30.47728 -99.17121 31961 ft 377 kts 282°
2026-04-30 22:07 30.48291 -99.20077 32352 ft 375 kts 282°
2026-04-30 22:07 30.48851 -99.23023 32740 ft 372 kts 283°
2026-04-30 22:07 30.49405 -99.25942 33105 ft 370 kts 283°
2026-04-30 22:08 30.49957 -99.28849 33464 ft 368 kts 283°
2026-04-30 22:08 30.50505 -99.31739 33808 ft 367 kts 283°
2026-04-30 22:08 30.51046 -99.34600 34135 ft 365 kts 283°
2026-04-30 22:08 30.51590 -99.37476 34413 ft 364 kts 283°
2026-04-30 22:09 30.52135 -99.40360 34696 ft 364 kts 283°
2026-04-30 22:09 30.52673 -99.43214 34962 ft 363 kts 283°
2026-04-30 22:09 30.53212 -99.46079 35223 ft 362 kts 283°
2026-04-30 22:09 30.53748 -99.48925 35476 ft 362 kts 283°
2026-04-30 22:10 30.54277 -99.51746 35720 ft 361 kts 283°
2026-04-30 22:10 30.54817 -99.54620 35960 ft 361 kts 283°
2026-04-30 22:10 30.55346 -99.57447 36187 ft 360 kts 283°
2026-04-30 22:10 30.55881 -99.60307 36397 ft 360 kts 283°
2026-04-30 22:11 30.56941 -99.65982 36795 ft 360 kts 283°
2026-04-30 22:11 30.57462 -99.68787 37008 ft 360 kts 283°
2026-04-30 22:11 30.57989 -99.71641 37216 ft 360 kts 283°
2026-04-30 22:12 30.58508 -99.74446 37418 ft 360 kts 283°
2026-04-30 22:12 30.59034 -99.77289 37615 ft 360 kts 283°
2026-04-30 22:12 30.59561 -99.80135 37806 ft 360 kts 283°
2026-04-30 22:12 30.60084 -99.82943 37955 ft 361 kts 283°
2026-04-30 22:13 30.60666 -99.85799 37965 ft 365 kts 284°
2026-04-30 22:13 30.61907 -99.91562 37962 ft 366 kts 285°
2026-04-30 22:14 30.63138 -99.97248 37963 ft 363 kts 285°
2026-04-30 22:14 30.64363 -100.02926 37963 ft 363 kts 285°
2026-04-30 22:15 30.65578 -100.08580 37963 ft 364 kts 284°
2026-04-30 22:15 30.66811 -100.14329 37968 ft 364 kts 284°
2026-04-30 22:16 30.68025 -100.20009 37975 ft 364 kts 285°
2026-04-30 22:17 30.70455 -100.31411 37988 ft 364 kts 285°
2026-04-30 22:17 30.72269 -100.39960 37990 ft 364 kts 285°
2026-04-30 22:18 30.74076 -100.48502 37990 ft 364 kts 284°
2026-04-30 22:19 30.75873 -100.57034 37990 ft 363 kts 284°
2026-04-30 22:20 30.77666 -100.65571 37991 ft 364 kts 284°
2026-04-30 22:20 30.79499 -100.74378 37990 ft 364 kts 284°
2026-04-30 22:21 30.80684 -100.80077 37990 ft 363 kts 284°
2026-04-30 22:21 30.81877 -100.85812 37987 ft 364 kts 284°
2026-04-30 22:22 30.83061 -100.91518 37983 ft 367 kts 284°
2026-04-30 22:22 30.84262 -100.97311 37978 ft 369 kts 284°
2026-04-30 22:23 30.85463 -101.03120 37974 ft 370 kts 283°
2026-04-30 22:23 30.86666 -101.08951 37972 ft 371 kts 283°
2026-04-30 22:24 30.87868 -101.14795 37972 ft 371 kts 283°
2026-04-30 22:24 30.89063 -101.20621 37972 ft 370 kts 283°
2026-04-30 22:25 30.90249 -101.26416 37972 ft 369 kts 283°
2026-04-30 22:25 30.91435 -101.32225 37972 ft 368 kts 283°
2026-04-30 22:26 30.93200 -101.40899 37972 ft 367 kts 283°
2026-04-30 22:27 30.94376 -101.46697 37972 ft 366 kts 283°
2026-04-30 22:27 30.96120 -101.55317 37972 ft 365 kts 283°
2026-04-30 22:28 30.97860 -101.63953 37972 ft 364 kts 283°
2026-04-30 22:29 31.00155 -101.75442 37972 ft 363 kts 282°
2026-04-30 22:31 31.04128 -101.95404 37972 ft 361 kts 282°
2026-04-30 22:32 31.06938 -102.09607 37973 ft 361 kts 282°
2026-04-30 22:33 31.09745 -102.23875 37964 ft 361 kts 282°
2026-04-30 22:35 31.12529 -102.38120 37963 ft 361 kts 282°
2026-04-30 22:36 31.15301 -102.52392 37963 ft 361 kts 282°
2026-04-30 22:37 31.17508 -102.63815 37963 ft 361 kts 282°
2026-04-30 22:38 31.19699 -102.75270 37963 ft 361 kts 281°
2026-04-30 22:39 31.21333 -102.83830 37963 ft 361 kts 282°
2026-04-30 22:40 31.24590 -103.00958 37964 ft 361 kts 281°
2026-04-30 22:41 31.27301 -103.15308 37970 ft 362 kts 281°
2026-04-30 22:43 31.30531 -103.32525 37972 ft 362 kts 281°
2026-04-30 22:44 31.32678 -103.44044 37972 ft 362 kts 281°
2026-04-30 22:45 31.35869 -103.61282 37972 ft 362 kts 281°
2026-04-30 22:47 31.39025 -103.78535 37972 ft 362 kts 281°
2026-04-30 22:48 31.41123 -103.90049 37972 ft 362 kts 281°
2026-04-30 22:49 31.44255 -104.07336 37972 ft 362 kts 281°
2026-04-30 22:51 31.47369 -104.24657 37972 ft 362 kts 281°
2026-04-30 22:52 31.48924 -104.33360 37972 ft 362 kts 281°
2026-04-30 22:53 31.50977 -104.44910 37972 ft 362 kts 281°
2026-04-30 22:53 31.52514 -104.53597 37972 ft 362 kts 281°
2026-04-30 22:55 31.55086 -104.68227 37973 ft 363 kts 281°
2026-04-30 22:56 31.57134 -104.79999 37980 ft 362 kts 281°
2026-04-30 22:57 31.59650 -104.94491 37997 ft 363 kts 280°
2026-04-30 22:58 31.61674 -105.06190 38009 ft 368 kts 279°
2026-04-30 22:59 31.64724 -105.23933 38012 ft 369 kts 279°